TimeEST,TemperatureF,Dew PointF,Humidity,Sea Level PressureIn,VisibilityMPH,Wind Direction,Wind SpeedMPH,Gust SpeedMPH,PrecipitationIn,Events,Conditions,WindDirDegrees,DateUTC
12:15 AM,37.4,24.8,60,29.83,10.0,SSE,13.8,17.3,N/A,,Clear,160,2013-02-19 05:15:00
12:35 AM,37.4,24.8,60,29.82,10.0,SSE,10.4,-,N/A,,Clear,150,2013-02-19 05:35:00
12:55 AM,37.4,26.6,65,29.82,10.0,SSE,11.5,16.1,N/A,,Clear,150,2013-02-19 05:55:00
1:15 AM,37.4,26.6,65,29.82,10.0,SSE,9.2,-,N/A,,Clear,150,2013-02-19 06:15:00
1:35 AM,39.2,26.6,61,29.80,10.0,SSE,16.1,-,N/A,,Clear,160,2013-02-19 06:35:00
1:55 AM,39.2,26.6,61,29.79,10.0,SSE,16.1,-,N/A,,Partly Cloudy,160,2013-02-19 06:55:00
2:15 AM,41.0,26.6,57,29.78,10.0,SSE,15.0,18.4,N/A,,Clear,150,2013-02-19 07:15:00
2:35 AM,39.2,26.6,61,29.77,10.0,SSE,16.1,23.0,N/A,,Scattered Clouds,150,2013-02-19 07:35:00
2:55 AM,39.2,26.6,61,29.78,10.0,South,17.3,21.9,N/A,,Mostly Cloudy,180,2013-02-19 07:55:00
3:15 AM,41.0,26.6,57,29.77,10.0,South,13.8,20.7,N/A,,Overcast,180,2013-02-19 08:15:00
3:35 AM,39.2,32.0,75,29.78,9.0,SSW,16.1,27.6,0.01,,Overcast,200,2013-02-19 08:35:00
3:55 AM,35.6,32.0,87,29.76,6.0,South,15.0,-,0.07,,Overcast,170,2013-02-19 08:55:00
4:15 AM,35.6,33.8,93,29.73,10.0,SSE,17.3,21.9,0.02,,Overcast,160,2013-02-19 09:15:00
4:35 AM,35.6,33.8,93,29.72,10.0,SSE,12.7,17.3,0.02,,Mostly Cloudy,160,2013-02-19 09:35:00
4:55 AM,35.6,33.8,93,29.71,10.0,SSE,19.6,25.3,0.02,,Overcast,160,2013-02-19 09:55:00
5:15 AM,37.4,33.8,87,29.71,10.0,SSE,13.8,-,N/A,,Overcast,160,2013-02-19 10:15:00
5:35 AM,35.6,33.8,93,29.69,10.0,SSE,17.3,24.2,0.01,,Overcast,160,2013-02-19 10:35:00
5:55 AM,35.6,33.8,93,29.68,10.0,SSE,17.3,23.0,0.02,,Overcast,160,2013-02-19 10:55:00
6:15 AM,35.6,33.8,93,29.69,10.0,South,15.0,23.0,0.01,,Overcast,190,2013-02-19 11:15:00
6:55 AM,35.6,33.8,93,29.67,10.0,South,16.1,26.5,0.03,,Overcast,170,2013-02-19 11:55:00
7:15 AM,35.6,33.8,93,29.66,10.0,South,16.1,24.2,N/A,,Overcast,170,2013-02-19 12:15:00
7:35 AM,37.4,33.8,87,29.65,10.0,South,18.4,25.3,0.01,,Overcast,170,2013-02-19 12:35:00
7:55 AM,37.4,35.6,93,29.65,10.0,South,19.6,24.2,0.01,,Overcast,180,2013-02-19 12:55:00
8:15 AM,37.4,35.6,93,29.64,10.0,South,16.1,23.0,N/A,,Overcast,180,2013-02-19 13:15:00
8:35 AM,37.4,35.6,93,29.64,10.0,South,18.4,28.8,N/A,,Overcast,180,2013-02-19 13:35:00
8:55 AM,37.4,35.6,93,29.64,10.0,South,19.6,28.8,N/A,,Overcast,180,2013-02-19 13:55:00
9:15 AM,37.4,35.6,93,29.63,10.0,South,16.1,25.3,N/A,,Overcast,180,2013-02-19 14:15:00
9:35 AM,37.4,35.6,93,29.62,10.0,South,18.4,-,N/A,,Overcast,180,2013-02-19 14:35:00
9:55 AM,37.4,35.6,93,29.61,10.0,South,19.6,26.5,N/A,,Overcast,190,2013-02-19 14:55:00
10:35 AM,39.2,35.6,87,29.60,10.0,South,20.7,27.6,N/A,,Overcast,190,2013-02-19 15:35:00
10:55 AM,39.2,35.6,87,29.61,10.0,SSW,15.0,24.2,0.01,,Overcast,210,2013-02-19 15:55:00
11:15 AM,39.2,35.6,87,29.61,7.0,SW,11.5,24.2,N/A,,Overcast,220,2013-02-19 16:15:00
11:35 AM,39.2,35.6,87,29.61,9.0,WSW,10.4,19.6,0.01,,Overcast,250,2013-02-19 16:35:00
11:55 AM,37.4,35.6,93,29.62,10.0,WSW,17.3,25.3,0.01,,Overcast,250,2013-02-19 16:55:00
12:15 PM,35.6,33.8,93,29.62,10.0,WSW,12.7,20.7,N/A,,Overcast,240,2013-02-19 17:15:00
12:35 PM,35.6,32.0,87,29.63,10.0,WSW,17.3,28.8,N/A,,Overcast,240,2013-02-19 17:35:00
1:15 PM,35.6,28.4,75,29.63,10.0,WSW,18.4,31.1,N/A,,Overcast,240,2013-02-19 18:15:00
1:35 PM,33.8,26.6,75,29.63,10.0,WSW,13.8,29.9,N/A,,Overcast,250,2013-02-19 18:35:00
1:55 PM,33.8,24.8,70,29.64,10.0,West,20.7,36.8,N/A,,Overcast,270,2013-02-19 18:55:00
2:15 PM,30.2,24.8,80,29.66,10.0,WSW,20.7,29.9,N/A,,Overcast,250,2013-02-19 19:15:00
2:35 PM,30.2,24.8,80,29.66,10.0,WSW,13.8,23.0,N/A,,Overcast,250,2013-02-19 19:35:00
2:55 PM,30.2,24.8,80,29.67,10.0,WSW,18.4,27.6,N/A,,Overcast,240,2013-02-19 19:55:00
3:15 PM,30.2,21.2,69,29.68,10.0,WSW,17.3,29.9,N/A,,Overcast,240,2013-02-19 20:15:00
3:35 PM,30.2,19.4,64,29.69,10.0,WSW,18.4,25.3,N/A,,Overcast,250,2013-02-19 20:35:00
3:55 PM,28.4,21.2,74,29.70,10.0,SW,16.1,27.6,N/A,,Overcast,230,2013-02-19 20:55:00
4:15 PM,28.4,19.4,69,29.70,10.0,WSW,11.5,23.0,N/A,,Overcast,250,2013-02-19 21:15:00
4:35 PM,28.4,19.4,69,29.71,10.0,SW,18.4,31.1,N/A,,Overcast,230,2013-02-19 21:35:00
4:55 PM,28.4,19.4,69,29.72,10.0,WSW,17.3,36.8,N/A,,Overcast,250,2013-02-19 21:55:00
5:15 PM,28.4,17.6,64,29.73,10.0,WSW,16.1,25.3,N/A,,Mostly Cloudy,250,2013-02-19 22:15:00
5:35 PM,26.6,17.6,69,29.74,10.0,WSW,13.8,24.2,N/A,,Overcast,250,2013-02-19 22:35:00
5:55 PM,26.6,17.6,69,29.75,9.0,WSW,16.1,-,N/A,,Overcast,240,2013-02-19 22:55:00
6:15 PM,26.6,17.6,69,29.76,10.0,WSW,9.2,16.1,N/A,,Overcast,250,2013-02-19 23:15:00
7:35 PM,23.0,19.4,86,29.80,1.0,WSW,12.7,26.5,N/A,,Overcast,240,2013-02-20 00:35:00
7:55 PM,23.0,14.0,68,29.81,7.0,WSW,15.0,31.1,N/A,,Overcast,240,2013-02-20 00:55:00
8:15 PM,23.0,15.8,74,29.81,5.0,WSW,12.7,17.3,N/A,,Overcast,250,2013-02-20 01:15:00
8:35 PM,23.0,17.6,80,29.81,7.0,SW,13.8,17.3,N/A,,Overcast,230,2013-02-20 01:35:00
8:55 PM,21.2,17.6,86,29.81,3.0,WSW,11.5,17.3,N/A,,Overcast,240,2013-02-20 01:55:00
9:15 PM,21.2,15.8,80,29.82,1.5,West,17.3,33.4,N/A,,Overcast,260,2013-02-20 02:15:00
9:35 PM,19.4,14.0,80,29.83,3.0,West,17.3,25.3,N/A,,Overcast,260,2013-02-20 02:35:00
9:55 PM,19.4,14.0,80,29.83,5.0,West,11.5,24.2,N/A,,Overcast,270,2013-02-20 02:55:00
10:15 PM,19.4,14.0,80,29.84,2.5,West,12.7,-,N/A,,Overcast,260,2013-02-20 03:15:00
10:35 PM,19.4,15.8,86,29.84,3.0,West,8.1,17.3,N/A,,Overcast,260,2013-02-20 03:35:00
10:55 PM,19.4,14.0,80,29.84,2.5,West,19.6,25.3,N/A,,Overcast,260,2013-02-20 03:55:00
11:15 PM,19.4,10.4,68,29.84,2.5,West,15.0,31.1,N/A,,Mostly Cloudy,260,2013-02-20 04:15:00
11:35 PM,17.6,12.2,79,29.84,3.0,WSW,12.7,24.2,N/A,,Overcast,250,2013-02-20 04:35:00
11:55 PM,17.6,12.2,79,29.85,4.0,West,16.1,24.2,N/A,,Overcast,260,2013-02-20 04:55:00